Hourly Weather Alisovo

Today, 11 May, Tuesday

Time Temperature Precipitation Wind Pressure Humidity
00:00 +16°C° 0 mm 3 mps 739 mmHg 54%
01:00 +14°C° 0 mm 3 mps 739 mmHg 58%
02:00 +13°C° 0 mm 3 mps 739 mmHg 62%
03:00 +12°C° 0 mm 3 mps 740 mmHg 66%
04:00 +12°C° 0 mm 3 mps 740 mmHg 70%
05:00 +13°C° 0 mm 3 mps 741 mmHg 68%
06:00 +13°C° 0 mm 4 mps 741 mmHg 67%
07:00 +14°C° 0 mm 4 mps 741 mmHg 66%
08:00 +16°C° 0 mm 5 mps 742 mmHg 60%
09:00 +17°C° 0 mm 5 mps 742 mmHg 54%
10:00 +20°C° 0 mm 5 mps 743 mmHg 49%
11:00 +21°C° 0 mm 5 mps 743 mmHg 45%
12:00 +21°C° 0 mm 5 mps 743 mmHg 41%
13:00 +22°C° 0 mm 5 mps 743 mmHg 37%
14:00 +22°C° 0 mm 5 mps 743 mmHg 37%
15:00 +23°C° 0 mm 5 mps 743 mmHg 36%
16:00 +23°C° 0 mm 5 mps 743 mmHg 34%
17:00 +22°C° 0 mm 4 mps 743 mmHg 40%
18:00 +21°C° 0 mm 3 mps 743 mmHg 45%
19:00 +20°C° 0 mm 2 mps 743 mmHg 50%
20:00 +19°C° 0 mm 2 mps 743 mmHg 51%
21:00 +18°C° 0 mm 2 mps 743 mmHg 51%
22:00 +17°C° 0 mm 2 mps 743 mmHg 52%
23:00 +16°C° 0 mm 2 mps 743 mmHg 55%

Tomorrow, 12 May, Wednesday

Time Temperature Precipitation Wind Pressure Humidity
00:00 +16°C° 0 mm 2 mps 743 mmHg 57%
01:00 +15°C° 0 mm 2 mps 743 mmHg 59%
02:00 +15°C° 0 mm 2 mps 743 mmHg 59%
03:00 +14°C° 0 mm 2 mps 743 mmHg 60%
04:00 +14°C° 0 mm 2 mps 743 mmHg 60%
05:00 +15°C° 0 mm 2 mps 744 mmHg 58%
06:00 +14°C° 0 mm 3 mps 744 mmHg 56%
07:00 +16°C° 0 mm 3 mps 744 mmHg 54%
08:00 +17°C° 0 mm 4 mps 744 mmHg 49%
09:00 +19°C° 0 mm 5 mps 745 mmHg 44%
10:00 +21°C° 0 mm 5 mps 745 mmHg 39%
11:00 +21°C° 0 mm 5 mps 745 mmHg 36%
12:00 +22°C° 0 mm 5 mps 745 mmHg 34%
13:00 +23°C° 0 mm 5 mps 744 mmHg 31%
14:00 +23°C° 0 mm 5 mps 744 mmHg 31%
15:00 +23°C° 0 mm 5 mps 744 mmHg 31%
16:00 +23°C° 0 mm 5 mps 744 mmHg 31%
17:00 +22°C° 0 mm 4 mps 744 mmHg 37%
18:00 +21°C° 0 mm 4 mps 744 mmHg 42%
19:00 +20°C° 0 mm 3 mps 744 mmHg 47%
20:00 +18°C° 0 mm 3 mps 744 mmHg 49%
21:00 +17°C° 0 mm 3 mps 744 mmHg 50%
22:00 +16°C° 0 mm 2 mps 744 mmHg 51%
23:00 +16°C° 0 mm 2 mps 744 mmHg 52%

Day after tomorrow, 13 May, Thursday

Time Temperature Precipitation Wind Pressure Humidity
00:00 +14°C° 0 mm 3 mps 744 mmHg 52%
01:00 +14°C° 0 mm 3 mps 744 mmHg 53%
02:00 +14°C° 0 mm 3 mps 744 mmHg 54%
03:00 +13°C° 0 mm 3 mps 744 mmHg 55%
04:00 +13°C° 0 mm 3 mps 744 mmHg 56%
05:00 +14°C° 0 mm 3 mps 744 mmHg 54%
06:00 +16°C° 0 mm 3 mps 744 mmHg 53%
07:00 +17°C° 0 mm 3 mps 744 mmHg 51%
08:00 +18°C° 0 mm 4 mps 744 mmHg 46%
09:00 +20°C° 0 mm 4 mps 745 mmHg 41%
10:00 +22°C° 0 mm 4 mps 745 mmHg 35%
11:00 +23°C° 0 mm 4 mps 745 mmHg 33%
12:00 +25°C° 0 mm 4 mps 745 mmHg 30%
13:00 +26°C° 0 mm 4 mps 744 mmHg 28%
14:00 +26°C° 0 mm 4 mps 744 mmHg 27%
15:00 +26°C° 0 mm 4 mps 744 mmHg 27%
16:00 +26°C° 0 mm 4 mps 744 mmHg 26%
17:00 +25°C° 0 mm 3 mps 744 mmHg 31%
18:00 +24°C° 0 mm 3 mps 743 mmHg 37%
19:00 +23°C° 0 mm 2 mps 743 mmHg 42%
20:00 +21°C° 0 mm 2 mps 743 mmHg 44%
21:00 +19°C° 0 mm 2 mps 743 mmHg 46%
22:00 +18°C° 0 mm 2 mps 743 mmHg 48%
23:00 +17°C° 0 mm 2 mps 743 mmHg 49%

14 May, Friday

Time Temperature Precipitation Wind Pressure Humidity
00:00 +17°C° 0 mm 2 mps 743 mmHg 51%
01:00 +16°C° 0 mm 2 mps 743 mmHg 52%
02:00 +16°C° 0 mm 2 mps 743 mmHg 53%
03:00 +15°C° 0 mm 2 mps 743 mmHg 53%
04:00 +15°C° 0 mm 2 mps 744 mmHg 53%
05:00 +16°C° 0 mm 2 mps 744 mmHg 52%
06:00 +17°C° 0 mm 2 mps 744 mmHg 50%
07:00 +19°C° 0 mm 2 mps 744 mmHg 49%
08:00 +20°C° 0 mm 3 mps 744 mmHg 44%
09:00 +22°C° 0 mm 3 mps 744 mmHg 39%
10:00 +25°C° 0 mm 4 mps 745 mmHg 34%
11:00 +26°C° 0 mm 4 mps 744 mmHg 32%
12:00 +27°C° 0 mm 4 mps 744 mmHg 29%
13:00 +28°C° 0 mm 3 mps 744 mmHg 26%
14:00 +28°C° 0 mm 3 mps 744 mmHg 26%
15:00 +28°C° 0 mm 3 mps 744 mmHg 25%
16:00 +28°C° 0 mm 2 mps 744 mmHg 25%
17:00 +27°C° 0 mm 2 mps 744 mmHg 29%
18:00 +26°C° 0 mm 1 mps 743 mmHg 33%
19:00 +25°C° 0 mm 1 mps 743 mmHg 38%
20:00 +24°C° 0 mm 1 mps 743 mmHg 38%
21:00 +23°C° 0 mm 1 mps 743 mmHg 38%
22:00 +21°C° 0 mm 1 mps 743 mmHg 38%
23:00 +21°C° 0 mm 1 mps 743 mmHg 40%

15 May, Saturday

Time Temperature Precipitation Wind Pressure Humidity
00:00 +20°C° 0 mm 1 mps 743 mmHg 41%
01:00 +20°C° 0 mm 1 mps 742 mmHg 43%
02:00 +19°C° 0 mm 1 mps 743 mmHg 44%
03:00 +19°C° 0 mm 1 mps 743 mmHg 44%
04:00 +18°C° 0 mm 1 mps 743 mmHg 45%
05:00 +19°C° 0 mm 1 mps 743 mmHg 45%
06:00 +19°C° 0 mm 2 mps 743 mmHg 44%
07:00 +21°C° 0 mm 2 mps 743 mmHg 44%
08:00 +23°C° 0 mm 2 mps 743 mmHg 41%
09:00 +25°C° 0 mm 3 mps 743 mmHg 37%
10:00 +27°C° 0 mm 3 mps 743 mmHg 34%
11:00 +28°C° 0 mm 3 mps 743 mmHg 31%
12:00 +29°C° 0 mm 3 mps 743 mmHg 29%
13:00 +30°C° 0 mm 3 mps 742 mmHg 26%
14:00 +30°C° 0 mm 3 mps 742 mmHg 26%
15:00 +30°C° 0 mm 3 mps 742 mmHg 25%
16:00 +30°C° 0 mm 2 mps 742 mmHg 25%
17:00 +29°C° 0 mm 2 mps 741 mmHg 28%
18:00 +28°C° 0 mm 2 mps 741 mmHg 32%
19:00 +26°C° 0 mm 2 mps 741 mmHg 36%
20:00 +25°C° 0 mm 1 mps 741 mmHg 36%
21:00 +24°C° 0 mm 1 mps 741 mmHg 35%
22:00 +23°C° 0 mm 1 mps 740 mmHg 34%
23:00 +22°C° 0 mm 1 mps 740 mmHg 37%

16 May, Sunday

Time Temperature Precipitation Wind Pressure Humidity
00:00 +22°C° 0 mm 1 mps 740 mmHg 39%
01:00 +21°C° 0 mm 1 mps 740 mmHg 42%
02:00 +20°C° 0 mm 2 mps 740 mmHg 45%
03:00 +19°C° 0 mm 2 mps 740 mmHg 49%
04:00 +19°C° 0 mm 2 mps 740 mmHg 52%
05:00 +20°C° 0 mm 2 mps 740 mmHg 51%
06:00 +21°C° 0 mm 2 mps 740 mmHg 51%
07:00 +23°C° 0 mm 2 mps 741 mmHg 51%
08:00 +25°C° 0 mm 3 mps 741 mmHg 46%
09:00 +26°C° 0 mm 3 mps 741 mmHg 42%
10:00 +28°C° 0 mm 4 mps 741 mmHg 37%
11:00 +29°C° 0 mm 4 mps 740 mmHg 34%
12:00 +30°C° 0 mm 3 mps 740 mmHg 30%
13:00 +31°C° 0 mm 3 mps 740 mmHg 27%
14:00 +31°C° 0 mm 3 mps 740 mmHg 28%
15:00 +30°C° 0 mm 3 mps 740 mmHg 28%
16:00 +30°C° 0 mm 3 mps 739 mmHg 29%
17:00 +28°C° 0 mm 2 mps 739 mmHg 36%
18:00 +26°C° 0 mm 2 mps 739 mmHg 43%
19:00 +24°C° 0 mm 2 mps 739 mmHg 50%
20:00 +24°C° 0 mm 2 mps 739 mmHg 51%
21:00 +23°C° 0 mm 2 mps 739 mmHg 52%
22:00 +22°C° 0 mm 1 mps 739 mmHg 52%
23:00 +22°C° 0 mm 1 mps 739 mmHg 53%
Show more

We Need Your Consent

Meteoprog and our Service Providers may store and access personal data such as cookies, device identifiers or other similar technologies on your device and process such data to personalise content and ads, as well as provide social media features and to analyse the traffic.

  • Store and/or access information on your device

    Cookies, device identifiers or other information can be stored or accessed on your device for the purposes indicated above.

  • Personalised ads and content, ad and content measurement, audience insights, and products development

    Ads and content can be personalised based on a profile. More data can be added to better personalise ads and content. Ad and content performance can be measured. Insights about the audience who saw the ads and content can be derived. Such data can be used to develop or improve user’s experience, systems and software.

By clicking ‘I Agree’ you will allow the use of indicated cookies, device identifiers, web beacons or other similar technologies. Your settings can be changed in the browser on your device.

For certain purposes, legitimate interests may be relied on, rather than consent. You can read more about this in our Privacy and Cookie Policy.